• In Latvia
  • List of Countries
  • For 7 days
  • Water Temperature
  • Satellite Maps
  • Weather Map
  • Weather Widgets
  • user-avatar
    Login

    Hourly Weather Yulara

    Today, 26 April, Wednesday

    Time Temperature Precipitation Wind Pressure Humidity
    00:00 +18°C° 0 mm 7 mps 722 mmHg 55%
    01:00 +18°C° 0 mm 7 mps 722 mmHg 55%
    02:00 +17°C° 0 mm 7 mps 722 mmHg 55%
    03:00 +17°C° 0 mm 7 mps 722 mmHg 54%
    04:00 +16°C° 0 mm 7 mps 722 mmHg 54%
    05:00 +16°C° 0 mm 7 mps 722 mmHg 53%
    06:00 +15°C° 0 mm 6 mps 722 mmHg 53%
    07:00 +16°C° 0 mm 7 mps 722 mmHg 51%
    08:00 +16°C° 0 mm 7 mps 723 mmHg 49%
    09:00 +17°C° 0 mm 8 mps 723 mmHg 47%
    10:00 +18°C° 0 mm 8 mps 723 mmHg 43%
    11:00 +21°C° 0 mm 8 mps 723 mmHg 39%
    12:00 +22°C° 0 mm 7 mps 723 mmHg 35%
    13:00 +22°C° 0 mm 7 mps 722 mmHg 34%
    14:00 +23°C° 0 mm 8 mps 722 mmHg 33%
    15:00 +23°C° 0 mm 7 mps 721 mmHg 30%
    16:00 +22°C° 0 mm 7 mps 722 mmHg 33%
    17:00 +22°C° 0 mm 6 mps 722 mmHg 35%
    18:00 +21°C° 0 mm 6 mps 722 mmHg 37%
    19:00 +20°C° 0 mm 6 mps 722 mmHg 39%
    20:00 +19°C° 0 mm 6 mps 723 mmHg 42%
    21:00 +17°C° 0 mm 6 mps 723 mmHg 45%
    22:00 +17°C° 0 mm 6 mps 723 mmHg 46%
    23:00 +16°C° 0 mm 6 mps 724 mmHg 47%

    Tomorrow, 27 April, Thursday

    Time Temperature Precipitation Wind Pressure Humidity
    00:00 +16°C° 0 mm 6 mps 724 mmHg 48%
    01:00 +15°C° 0 mm 6 mps 723 mmHg 48%
    02:00 +15°C° 0 mm 5 mps 723 mmHg 48%
    03:00 +14°C° 0 mm 5 mps 723 mmHg 48%
    04:00 +14°C° 0 mm 5 mps 723 mmHg 50%
    05:00 +13°C° 0 mm 5 mps 723 mmHg 51%
    06:00 +13°C° 0 mm 5 mps 723 mmHg 53%
    07:00 +14°C° 0 mm 6 mps 724 mmHg 51%
    08:00 +14°C° 0 mm 7 mps 724 mmHg 50%
    09:00 +15°C° 0 mm 7 mps 724 mmHg 48%
    10:00 +16°C° 0 mm 7 mps 724 mmHg 43%
    11:00 +18°C° 0 mm 7 mps 724 mmHg 39%
    12:00 +20°C° 0 mm 8 mps 724 mmHg 34%
    13:00 +20°C° 0 mm 8 mps 723 mmHg 32%
    14:00 +21°C° 0 mm 8 mps 723 mmHg 29%
    15:00 +22°C° 0 mm 8 mps 723 mmHg 27%
    16:00 +21°C° 0 mm 7 mps 723 mmHg 28%
    17:00 +20°C° 0 mm 7 mps 723 mmHg 30%
    18:00 +19°C° 0 mm 6 mps 722 mmHg 31%
    19:00 +19°C° 0 mm 6 mps 723 mmHg 32%
    20:00 +17°C° 0 mm 6 mps 723 mmHg 34%
    21:00 +16°C° 0 mm 6 mps 724 mmHg 36%
    22:00 +16°C° 0 mm 6 mps 724 mmHg 37%
    23:00 +15°C° 0 mm 6 mps 724 mmHg 38%

    Day after tomorrow, 28 April, Friday

    Time Temperature Precipitation Wind Pressure Humidity
    00:00 +14°C° 0 mm 6 mps 724 mmHg 39%
    01:00 +14°C° 0 mm 5 mps 723 mmHg 40%
    02:00 +14°C° 0 mm 5 mps 723 mmHg 42%
    03:00 +13°C° 0 mm 5 mps 723 mmHg 43%
    04:00 +13°C° 0 mm 5 mps 723 mmHg 44%
    05:00 +12°C° 0 mm 5 mps 723 mmHg 45%
    06:00 +12°C° 0 mm 5 mps 723 mmHg 47%
    07:00 +13°C° 0 mm 6 mps 724 mmHg 44%
    08:00 +14°C° 0 mm 6 mps 724 mmHg 42%
    09:00 +15°C° 0 mm 7 mps 725 mmHg 39%
    10:00 +16°C° 0 mm 7 mps 724 mmHg 36%
    11:00 +17°C° 0 mm 7 mps 724 mmHg 33%
    12:00 +20°C° 0 mm 7 mps 724 mmHg 29%
    13:00 +20°C° 0 mm 7 mps 723 mmHg 28%
    14:00 +21°C° 0 mm 6 mps 722 mmHg 26%
    15:00 +22°C° 0 mm 6 mps 722 mmHg 24%
    16:00 +21°C° 0 mm 6 mps 722 mmHg 26%
    17:00 +20°C° 0 mm 5 mps 722 mmHg 28%
    18:00 +20°C° 0 mm 5 mps 722 mmHg 29%
    19:00 +19°C° 0 mm 5 mps 723 mmHg 31%
    20:00 +19°C° 0 mm 4 mps 723 mmHg 33%
    21:00 +18°C° 0 mm 4 mps 723 mmHg 35%
    22:00 +17°C° 0 mm 4 mps 723 mmHg 36%
    23:00 +16°C° 0 mm 5 mps 723 mmHg 37%

    29 April, Saturday

    Time Temperature Precipitation Wind Pressure Humidity
    00:00 +16°C° 0 mm 5 mps 723 mmHg 38%
    01:00 +15°C° 0 mm 4 mps 723 mmHg 40%
    02:00 +15°C° 0 mm 4 mps 723 mmHg 42%
    03:00 +14°C° 0 mm 4 mps 722 mmHg 44%
    04:00 +14°C° 0 mm 4 mps 722 mmHg 46%
    05:00 +13°C° 0 mm 4 mps 722 mmHg 48%
    06:00 +13°C° 0 mm 4 mps 722 mmHg 50%
    07:00 +14°C° 0 mm 4 mps 723 mmHg 47%
    08:00 +15°C° 0 mm 5 mps 723 mmHg 44%
    09:00 +15°C° 0 mm 6 mps 724 mmHg 41%
    10:00 +17°C° 0 mm 6 mps 723 mmHg 37%
    11:00 +19°C° 0 mm 6 mps 723 mmHg 33%
    12:00 +20°C° 0 mm 6 mps 723 mmHg 30%
    13:00 +21°C° 0 mm 6 mps 722 mmHg 28%
    14:00 +22°C° 0 mm 6 mps 722 mmHg 26%
    15:00 +22°C° 0 mm 6 mps 721 mmHg 24%
    16:00 +22°C° 0 mm 5 mps 721 mmHg 26%
    17:00 +21°C° 0 mm 5 mps 721 mmHg 27%
    18:00 +20°C° 0 mm 4 mps 721 mmHg 29%
    19:00 +19°C° 0 mm 4 mps 722 mmHg 31%
    20:00 +19°C° 0 mm 4 mps 722 mmHg 33%
    21:00 +18°C° 0 mm 4 mps 723 mmHg 35%
    22:00 +18°C° 0 mm 4 mps 722 mmHg 36%
    23:00 +17°C° 0 mm 4 mps 722 mmHg 38%

    30 April, Sunday

    Time Temperature Precipitation Wind Pressure Humidity
    00:00 +17°C° 0 mm 4 mps 722 mmHg 39%
    01:00 +15°C° 0 mm 4 mps 722 mmHg 40%
    02:00 +16°C° 0 mm 3 mps 721 mmHg 42%
    03:00 +14°C° 0 mm 3 mps 721 mmHg 43%
    04:00 +14°C° 0 mm 3 mps 721 mmHg 44%
    05:00 +14°C° 0 mm 3 mps 721 mmHg 46%
    06:00 +13°C° 0 mm 3 mps 721 mmHg 47%
    07:00 +14°C° 0 mm 3 mps 722 mmHg 44%
    08:00 +15°C° 0 mm 4 mps 722 mmHg 41%
    09:00 +17°C° 0 mm 4 mps 723 mmHg 39%
    10:00 +18°C° 0 mm 4 mps 722 mmHg 36%
    11:00 +19°C° 0 mm 4 mps 722 mmHg 33%
    12:00 +21°C° 0 mm 4 mps 721 mmHg 30%
    13:00 +21°C° 0 mm 3 mps 721 mmHg 29%
    14:00 +22°C° 0 mm 3 mps 720 mmHg 27%
    15:00 +22°C° 0 mm 3 mps 719 mmHg 25%
    16:00 +22°C° 0 mm 3 mps 719 mmHg 27%
    17:00 +21°C° 0 mm 3 mps 720 mmHg 28%
    18:00 +21°C° 0 mm 2 mps 720 mmHg 29%
    19:00 +20°C° 0 mm 3 mps 720 mmHg 30%
    20:00 +19°C° 0 mm 3 mps 720 mmHg 32%
    21:00 +19°C° 0 mm 3 mps 721 mmHg 33%
    22:00 +18°C° 0 mm 3 mps 721 mmHg 35%
    23:00 +18°C° 0 mm 3 mps 720 mmHg 37%

    1 May, Monday

    Time Temperature Precipitation Wind Pressure Humidity
    00:00 +17°C° 0 mm 3 mps 720 mmHg 39%
    01:00 +17°C° 0 mm 3 mps 720 mmHg 40%
    02:00 +16°C° 0 mm 2 mps 719 mmHg 42%
    03:00 +16°C° 0 mm 2 mps 719 mmHg 43%
    04:00 +15°C° 0 mm 2 mps 719 mmHg 44%
    05:00 +15°C° 0 mm 2 mps 719 mmHg 45%
    06:00 +15°C° 0 mm 2 mps 719 mmHg 46%
    07:00 +16°C° 0 mm 2 mps 720 mmHg 43%
    08:00 +17°C° 0 mm 2 mps 720 mmHg 40%
    09:00 +18°C° 0 mm 2 mps 721 mmHg 37%
    10:00 +19°C° 0 mm 2 mps 720 mmHg 34%
    11:00 +21°C° 0 mm 2 mps 720 mmHg 31%
    12:00 +23°C° 0 mm 2 mps 720 mmHg 28%
    13:00 +22°C° 0 mm 3 mps 719 mmHg 27%
    14:00 +24°C° 0 mm 3 mps 719 mmHg 25%
    15:00 +25°C° 0 mm 4 mps 718 mmHg 24%
    16:00 +23°C° 0 mm 4 mps 719 mmHg 26%
    17:00 +22°C° 0 mm 3 mps 719 mmHg 27%
    18:00 +22°C° 0 mm 3 mps 719 mmHg 29%
    19:00 +21°C° 0 mm 3 mps 719 mmHg 31%
    20:00 +20°C° 0 mm 3 mps 719 mmHg 33%
    21:00 +19°C° 0 mm 4 mps 720 mmHg 35%
    22:00 +19°C° 0 mm 4 mps 720 mmHg 36%
    23:00 +18°C° 0 mm 4 mps 719 mmHg 37%
    Show more